When you browse on this site, cookies collect data to enhance your experience and personalize the content and advertising you see.
Visit our Privacy Policy to learn more. By continuing to use the site, you agree to this use of cookies and data.
  • In Lithuania
  • List of Countries
  • For 7 days
  • Water Temperature
  • Satellite Maps
  • Weather Map
  • Weather Widgets
  • user-avatar
    Login

    Hourly Weather Konakry

    Today, 19 November, Monday

    Time Temperature Precipitation Wind Pressure Humidity
    00:00 +27°C° 0 mm 1 mps 755 mmHg 75%
    01:00 +27°C° 0 mm 1 mps 755 mmHg 75%
    02:00 +27°C° 0 mm 1 mps 755 mmHg 75%
    03:00 +27°C° 0 mm 2 mps 755 mmHg 74%
    04:00 +26°C° 0 mm 2 mps 755 mmHg 72%
    05:00 +26°C° 0 mm 3 mps 755 mmHg 69%
    06:00 +27°C° 0 mm 3 mps 755 mmHg 64%
    07:00 +28°C° 0 mm 3 mps 755 mmHg 60%
    08:00 +29°C° 0 mm 4 mps 756 mmHg 55%
    09:00 +32°C° 0 mm 4 mps 755 mmHg 49%
    10:00 +33°C° 0 mm 4 mps 755 mmHg 43%
    11:00 +35°C° 0 mm 3 mps 755 mmHg 36%
    12:00 +36°C° 0 mm 3 mps 755 mmHg 36%
    13:00 +36°C° 0 mm 2 mps 754 mmHg 35%
    14:00 +36°C° 0 mm 1 mps 754 mmHg 34%
    15:00 +36°C° 0 mm 2 mps 754 mmHg 39%
    16:00 +35°C° 0 mm 2 mps 754 mmHg 43%
    17:00 +34°C° 0 mm 2 mps 754 mmHg 48%
    18:00 +32°C° 0 mm 2 mps 754 mmHg 51%
    19:00 +31°C° 0 mm 2 mps 755 mmHg 53%
    20:00 +30°C° 0 mm 2 mps 756 mmHg 56%
    21:00 +29°C° 0 mm 3 mps 756 mmHg 57%
    22:00 +29°C° 0 mm 3 mps 756 mmHg 57%
    23:00 +28°C° 0 mm 3 mps 756 mmHg 58%

    Tomorrow, 20 November, Tuesday

    Time Temperature Precipitation Wind Pressure Humidity
    00:00 +28°C° 0 mm 3 mps 756 mmHg 59%
    01:00 +28°C° 0 mm 3 mps 756 mmHg 59%
    02:00 +28°C° 0 mm 2 mps 755 mmHg 60%
    03:00 +27°C° 0.2 mm 2 mps 755 mmHg 61%
    04:00 +27°C° 0.2 mm 2 mps 755 mmHg 61%
    05:00 +27°C° 0.2 mm 3 mps 755 mmHg 62%
    06:00 +27°C° 0.3 mm 3 mps 755 mmHg 64%
    07:00 +27°C° 0.3 mm 3 mps 756 mmHg 66%
    08:00 +27°C° 0.3 mm 3 mps 756 mmHg 68%
    09:00 +28°C° 0 mm 3 mps 756 mmHg 64%
    10:00 +29°C° 0 mm 3 mps 756 mmHg 60%
    11:00 +31°C° 0 mm 3 mps 756 mmHg 56%
    12:00 +31°C° 0 mm 3 mps 756 mmHg 54%
    13:00 +32°C° 0 mm 2 mps 755 mmHg 52%
    14:00 +34°C° 0 mm 2 mps 754 mmHg 51%
    15:00 +32°C° 0 mm 1 mps 754 mmHg 55%
    16:00 +31°C° 0 mm 1 mps 754 mmHg 59%
    17:00 +30°C° 0 mm 1 mps 754 mmHg 63%
    18:00 +30°C° 0 mm 1 mps 755 mmHg 64%
    19:00 +29°C° 0 mm 1 mps 755 mmHg 65%
    20:00 +29°C° 0 mm 1 mps 756 mmHg 65%
    21:00 +28°C° 0 mm 1 mps 756 mmHg 65%
    22:00 +28°C° 0 mm 2 mps 756 mmHg 65%
    23:00 +28°C° 0 mm 2 mps 756 mmHg 64%

    Day after tomorrow, 21 November, Wednesday

    Time Temperature Precipitation Wind Pressure Humidity
    00:00 +28°C° 0 mm 2 mps 756 mmHg 64%
    01:00 +27°C° 0 mm 2 mps 755 mmHg 64%
    02:00 +27°C° 0 mm 2 mps 755 mmHg 64%
    03:00 +27°C° 0 mm 2 mps 755 mmHg 65%
    04:00 +27°C° 0 mm 1 mps 755 mmHg 66%
    05:00 +26°C° 0 mm 1 mps 755 mmHg 67%
    06:00 +28°C° 0 mm 1 mps 756 mmHg 64%
    07:00 +29°C° 0 mm 1 mps 756 mmHg 62%
    08:00 +30°C° 0 mm 1 mps 757 mmHg 60%
    09:00 +32°C° 0 mm 1 mps 757 mmHg 55%
    10:00 +33°C° 0 mm 1 mps 757 mmHg 50%
    11:00 +36°C° 0 mm 2 mps 757 mmHg 45%
    12:00 +36°C° 0 mm 2 mps 756 mmHg 45%
    13:00 +36°C° 0 mm 2 mps 755 mmHg 44%
    14:00 +36°C° 0 mm 3 mps 754 mmHg 44%
    15:00 +35°C° 0 mm 3 mps 754 mmHg 51%
    16:00 +33°C° 0 mm 3 mps 754 mmHg 59%
    17:00 +32°C° 0 mm 4 mps 754 mmHg 66%
    18:00 +30°C° 0 mm 3 mps 755 mmHg 70%
    19:00 +29°C° 0 mm 3 mps 755 mmHg 74%
    20:00 +29°C° 0 mm 2 mps 756 mmHg 78%
    21:00 +28°C° 0 mm 2 mps 756 mmHg 80%
    22:00 +28°C° 0 mm 2 mps 756 mmHg 82%
    23:00 +28°C° 0 mm 2 mps 756 mmHg 83%

    22 November, Thursday

    Time Temperature Precipitation Wind Pressure Humidity
    00:00 +28°C° 0.6 mm 2 mps 756 mmHg 85%
    01:00 +27°C° 0.6 mm 2 mps 755 mmHg 86%
    02:00 +27°C° 0.6 mm 2 mps 755 mmHg 88%
    03:00 +27°C° 0.6 mm 2 mps 755 mmHg 88%
    04:00 +27°C° 0.6 mm 2 mps 755 mmHg 89%
    05:00 +27°C° 0.6 mm 2 mps 755 mmHg 90%
    06:00 +28°C° 0.2 mm 2 mps 755 mmHg 85%
    07:00 +29°C° 0.2 mm 2 mps 756 mmHg 81%
    08:00 +30°C° 0.2 mm 1 mps 756 mmHg 76%
    09:00 +31°C° 0 mm 2 mps 756 mmHg 68%
    10:00 +34°C° 0 mm 2 mps 756 mmHg 61%
    11:00 +36°C° 0 mm 2 mps 756 mmHg 53%
    12:00 +36°C° 0 mm 2 mps 755 mmHg 54%
    13:00 +36°C° 0 mm 3 mps 754 mmHg 54%
    14:00 +36°C° 0 mm 3 mps 753 mmHg 54%
    15:00 +34°C° 0 mm 3 mps 753 mmHg 61%
    16:00 +33°C° 0 mm 3 mps 753 mmHg 68%
    17:00 +30°C° 0 mm 3 mps 753 mmHg 75%
    18:00 +30°C° 0 mm 3 mps 754 mmHg 78%
    19:00 +29°C° 0 mm 3 mps 754 mmHg 81%
    20:00 +29°C° 0 mm 2 mps 755 mmHg 83%
    21:00 +29°C° 0 mm 2 mps 755 mmHg 84%
    22:00 +28°C° 0 mm 2 mps 755 mmHg 86%
    23:00 +28°C° 0 mm 2 mps 755 mmHg 87%

    23 November, Friday

    Time Temperature Precipitation Wind Pressure Humidity
    00:00 +28°C° 0 mm 2 mps 755 mmHg 88%
    01:00 +28°C° 0 mm 2 mps 754 mmHg 88%
    02:00 +27°C° 0 mm 3 mps 754 mmHg 89%
    03:00 +27°C° 0.4 mm 2 mps 754 mmHg 90%
    04:00 +27°C° 0.4 mm 2 mps 754 mmHg 90%
    05:00 +27°C° 0.4 mm 2 mps 755 mmHg 90%
    06:00 +28°C° 0 mm 2 mps 755 mmHg 85%
    07:00 +29°C° 0 mm 2 mps 755 mmHg 80%
    08:00 +30°C° 0 mm 2 mps 756 mmHg 75%
    09:00 +32°C° 0 mm 1 mps 756 mmHg 68%
    10:00 +34°C° 0 mm 1 mps 755 mmHg 61%
    11:00 +35°C° 0 mm 1 mps 755 mmHg 53%
    12:00 +36°C° 0 mm 2 mps 754 mmHg 52%
    13:00 +37°C° 0 mm 2 mps 753 mmHg 51%
    14:00 +37°C° 0 mm 3 mps 753 mmHg 50%
    15:00 +35°C° 0 mm 3 mps 753 mmHg 57%
    16:00 +34°C° 0 mm 3 mps 753 mmHg 64%
    17:00 +32°C° 0 mm 4 mps 753 mmHg 71%
    18:00 +30°C° 0.1 mm 3 mps 754 mmHg 75%
    19:00 +30°C° 0.1 mm 3 mps 754 mmHg 79%
    20:00 +29°C° 0.1 mm 2 mps 755 mmHg 83%
    21:00 +29°C° 0 mm 2 mps 755 mmHg 83%
    22:00 +28°C° 0 mm 2 mps 754 mmHg 84%
    23:00 +28°C° 0 mm 2 mps 754 mmHg 85%

    24 November, Saturday

    Time Temperature Precipitation Wind Pressure Humidity
    00:00 +28°C° 0 mm 2 mps 754 mmHg 85%
    01:00 +28°C° 0 mm 1 mps 754 mmHg 86%
    02:00 +27°C° 0 mm 1 mps 753 mmHg 87%
    03:00 +27°C° 0 mm 1 mps 753 mmHg 88%
    04:00 +27°C° 0 mm 1 mps 754 mmHg 89%
    05:00 +27°C° 0 mm 1 mps 754 mmHg 90%
    06:00 +28°C° 0 mm 1 mps 754 mmHg 86%
    07:00 +29°C° 0 mm 1 mps 755 mmHg 81%
    08:00 +30°C° 0 mm 1 mps 755 mmHg 77%
    09:00 +32°C° 0 mm 1 mps 755 mmHg 69%
    10:00 +33°C° 0 mm 1 mps 755 mmHg 61%
    11:00 +35°C° 0 mm 1 mps 754 mmHg 54%
    12:00 +36°C° 0 mm 2 mps 754 mmHg 54%
    13:00 +36°C° 0 mm 2 mps 753 mmHg 53%
    14:00 +36°C° 0 mm 3 mps 752 mmHg 53%
    15:00 +35°C° 0 mm 3 mps 753 mmHg 60%
    16:00 +33°C° 0 mm 4 mps 753 mmHg 68%
    17:00 +32°C° 0 mm 4 mps 753 mmHg 75%
    18:00 +30°C° 0 mm 3 mps 754 mmHg 78%
    19:00 +30°C° 0 mm 3 mps 754 mmHg 81%
    20:00 +29°C° 0 mm 3 mps 755 mmHg 84%
    21:00 +29°C° 0 mm 2 mps 755 mmHg 84%
    22:00 +28°C° 0 mm 2 mps 755 mmHg 85%
    23:00 +28°C° 0 mm 2 mps 755 mmHg 86%
    Show more